Preview of NWS' New Version of Forecast
This preview is not operational and should not be used for support decisions.

Regional Weather Roundup (RWR)

Issued by National Weather Service (NWS)

                            
000
ASUS45 KBOU 222210
RWRCO 

WEATHER ROUNDUP FOR COLORADO
NATIONAL WEATHER SERVICE DENVER/BOULDER CO
400 PM MDT MON JUL 22 2019

NOTE: "FAIR" INDICATES FEW OR NO CLOUDS BELOW 12000 FEET WITH NO
SIGNIFICANT WEATHER AND/OR OBSTRUCTIONS TO VISIBILITY.

COZ001>005-013-030-031-222300-
...NORTHWEST COLORADO...
  
CITY           SKY/WX    TMP DP  RH WIND       PRES   REMARKS
CRAIG          FAIR      91  40  16 VRB3      30.24F                  
HAYDEN         FAIR      81  47  30 E17       30.31R                  
MEEKER         FAIR      86  40  19 S12       30.29F                  
RANGELY        NOT AVBL                                               
RABBIT EARS PA NOT AVBL                                               
STEAMBOAT SPGS FAIR      82  38  20 NE16G30   30.34S                  
WALDEN         NOT AVBL                                               
$$

COZ006>008-011-222300-
...WEST CENTRAL VALLEYS...
  
CITY           SKY/WX    TMP DP  RH WIND       PRES   REMARKS
GRAND JUNCTION FAIR     101  29   8 CALM      30.11F                  
MONTROSE       FAIR      89  41  18 S10       30.23R                  
EAGLE          FAIR      88  34  14 VRB5G17   30.31F                  
RIFLE          FAIR      96  42  15 N17G35    30.19R                  
DELTA          FAIR     101  32   9 CALM      30.16R                  
NUCLA          FAIR      79  46  31 E23G32    30.29R                  
$$

COZ017>023-064>068-222300-
...SOUTHWEST COLORADO...
  
CITY           SKY/WX    TMP DP  RH WIND       PRES   REMARKS
DURANGO        FAIR      82  44  26 N26G46    30.35R                  
CORTEZ         FAIR      93  45  19 VRB3G21   30.23F                  
PAGOSA SPRINGS LGT RAIN  64  50  59 NE14G20   30.52R                  
TELLURIDE      RAIN      57  50  77 CALM      30.68R                  
WOLF CREEK PAS NOT AVBL                                               
$$

COZ009-010-012-014-032>034-037-058>063-222300-
...CENTRAL COLORADO...
  
CITY           SKY/WX    TMP DP  RH WIND       PRES   REMARKS
ASPEN          FAIR      79  38  22 S6        30.43R                  
BUENA VISTA    FAIR      80  36  20 E12       30.48R                  
COPPER MTN     FAIR      64  37  36 NW8G21    30.82R                  
BERTHOUD PASS  PTSUNNY   45  32  61 E9        30.86R THUNDER          
COTTONWOOD PAS NOT AVBL                                               
GUNNISON       FAIR      85  39  19 N20G32    30.37F                  
GRANBY         NOT AVBL                                               
KREMMLING      FAIR      81  37  21 S12       30.40F                  
LEADVILLE      LGT RAIN  61  38  42 VRB3      30.63R                  
SALIDA         PTSUNNY   75  41  30 SE9G16    30.54R                  
SUNLIGHT       FAIR      68  34  28 E7        30.71S                  
WILKERSON PASS PTSUNNY   52  43  71 E9        30.79R THUNDER          
$$

COZ069>075-222300-
...SAN LUIS VALLEY/SANGRE DE CRISTO MOUNTAINS...
  
CITY           SKY/WX    TMP DP  RH WIND       PRES   REMARKS
ALAMOSA        FAIR      78  42  27 W20G28    30.39F                  
DEL NORTE      CLOUDY    71  40  32 W16G24    30.47F                  
LA VETA PASS   NOT AVBL                                               
SAGUACHE       FAIR      79  37  22 N13G22    30.46R                  
$$

COZ035-036-038>040-222300-
...NORTHERN COLORADO FRONT RANGE...
  
CITY           SKY/WX    TMP DP  RH WIND       PRES   REMARKS
DENVER INTL AP PTSUNNY   84  53  34 SE10      30.30S                  
AURORA         PTSUNNY   83  54  37 N3        30.32F                  
FRONT RANGE AP PTSUNNY   84  54  34 SE10      30.33S                  
ERIE MUNI ARPT FAIR      81  58  45 N10       30.37R                  
BOULDER MUN AP FAIR      81  55  41 N8        30.34R                  
CENTENNIAL     FAIR      81  56  42 VRB3      30.34F                  
BROOMFIELD     PTSUNNY   82  57  42 N17       30.36R                  
FORT COLLINS   PTSUNNY   78  59  51 NW17      30.35R                  
LONGMONT       FAIR      80  59  48 NW16      30.36R                  
$$

COZ041-046-047-076>085-087-088-222300-
...PIKES PEAK/PALMER DIVIDE AND SOUTHERN FOOTHILLS...
  
CITY           SKY/WX    TMP DP  RH WIND       PRES   REMARKS
COLO. SPRINGS  PTSUNNY   75  54  47 S15G22    30.40R                  
A. F. ACADEMY  CLOUDY    72  55  56 SE10      30.41R                  
SCHRIEVER AFB  NOT AVBL                                               
CHEYENNE MTN   PTSUNNY  N/A N/A N/A SE16G22     N/A                   
ELLICOTT         N/A    N/A N/A N/A S12G18    30.39R                  
FALCON         FAIR      71  52  51 S12G20    30.47R                  
FORT CARSON    FAIR      77  55  47 S13G20    30.37R                  
LIMON          FAIR      77  58  51 SE14      30.36F                  
MONUMENT HILL  FAIR      70  54  56 S10       30.47R                  
CANON CITY     NOT AVBL                                               
WALSENBURG     NOT AVBL                                               
TRINIDAD       FAIR      86  54  33 E13G26    30.33F                  
$$

COZ042>045-048>051-090-091-222300-
...NORTHEAST COLORADO...
  
CITY           SKY/WX    TMP DP  RH WIND       PRES   REMARKS
GREELEY ARPT   FAIR      83  58  42 E9        30.30S                  
AKRON          PTSUNNY   78  60  53 E15G28    30.32F                  
BURLINGTON     PTSUNNY   79  61  53 E9G17     30.33F                  
WRAY           CLOUDY    81  55  41 E14       30.32S                  
YUMA           CLOUDY    75  32  20 E12       30.32S                  
STERLING       FAIR      84  59  42 SE8G16    30.29F                  
HOLYOKE        FAIR      79  57  47 SE10G16   30.33F                  
FORT MORGAN    NOT AVBL                                               
$$

COZ086-089-092>099-222300-
...SOUTHEAST COLORADO...
  
CITY           SKY/WX    TMP DP  RH WIND       PRES   REMARKS
PUEBLO         FAIR      84  61  45 SE14G24   30.28F                  
LA JUNTA       FAIR      83  61  47 E18G24    30.28F                  
LAMAR          FAIR      84  60  44 E15G22    30.27F                  
SPRINGFIELD      N/A     81  57  43 E16G24    30.32F                  
$$